| time (UTC) | temp F | wind direction | speed knots | gust knots | rain 1hr in | rain 24hr in | rain mn in | humidity % | barometer mb |
| 20260502123012 | 47 | 259 | 17.4 | 26.9 | 0.00 | 0.00 | 0.00 | 49 | 1025.0 |
| 20260502121513 | 48 | 267 | 18.2 | 26.9 | 0.00 | 0.00 | 0.00 | 48 | 1025.2 |
| 20260502114507 | 46 | 267 | 13.9 | 21.7 | 0.00 | 0.00 | 0.00 | 51 | 1025.4 |
| 20260502113005 | 46 | 266 | 12.2 | 20.0 | 0.00 | 0.00 | 0.00 | 51 | 1025.5 |
| 20260502111503 | 47 | 272 | 14.8 | 23.5 | 0.00 | 0.00 | 0.00 | 49 | 1025.5 |
| 20260502110002 | 46 | 273 | 14.8 | 22.6 | 0.00 | 0.00 | 0.00 | 50 | 1025.5 |
| 20260502104501 | 47 | 251 | 15.6 | 21.7 | 0.00 | 0.00 | 0.00 | 50 | 1025.5 |
| 20260502103102 | 47 | 261 | 13.9 | 24.3 | 0.00 | 0.00 | 0.00 | 48 | 1025.5 |
| 20260502101559 | 48 | 269 | 16.5 | 24.3 | 0.00 | 0.00 | 0.00 | 48 | 1025.6 |
| 20260502071532 | 49 | 286 | 16.5 | 23.5 | 0.00 | 0.00 | 0.00 | 46 | 1027.2 |
| 20260502070031 | 48 | 263 | 16.5 | 22.6 | 0.00 | 0.00 | 0.00 | 47 | 1027.3 |
| 20260502064541 | 49 | 262 | 16.5 | 25.2 | 0.00 | 0.00 | 0.00 | 47 | 1027.4 |
| 20260502063033 | 49 | 252 | 15.6 | 23.5 | 0.00 | 0.00 | 0.00 | 46 | 1027.5 |
| 20260502061523 | 50 | 239 | 15.6 | 21.7 | 0.00 | 0.00 | 0.00 | 45 | 1027.6 |
| 20260502060021 | 50 | 247 | 16.5 | 23.5 | 0.00 | 0.00 | 0.00 | 45 | 1027.7 |
| 20260502054523 | 50 | 260 | 16.5 | 21.7 | 0.00 | 0.00 | 0.00 | 45 | 1027.8 |
| 20260502053017 | 50 | 259 | 14.8 | 21.7 | 0.00 | 0.00 | 0.00 | 44 | 1027.7 |
| 20260502051516 | 50 | 274 | 13.9 | 20.9 | 0.00 | 0.00 | 0.00 | 44 | 1027.8 |
| 20260502050020 | 51 | 263 | 14.8 | 22.6 | 0.00 | 0.00 | 0.00 | 42 | 1027.9 |
| 20260502044512 | 51 | 239 | 14.8 | 21.7 | 0.00 | 0.00 | 0.00 | 42 | 1028.1 |
| 20260502043010 | 52 | 273 | 13.0 | 18.2 | 0.00 | 0.00 | 0.00 | 41 | 1028.1 |
| 20260502041510 | 52 | 266 | 13.0 | 18.2 | 0.00 | 0.00 | 0.00 | 40 | 1028.2 |
| 20260502040012 | 53 | 238 | 10.4 | 16.5 | 0.00 | 0.00 | 0.00 | 40 | 1028.2 |
| 20260502034509 | 53 | 248 | 11.3 | 16.5 | 0.00 | 0.00 | 0.00 | 40 | 1028.3 |
| 20260502033008 | 53 | 243 | 10.4 | 13.9 | 0.00 | 0.00 | 0.00 | 39 | 1028.3 |
| 20260502031508 | 54 | 273 | 10.4 | 15.6 | 0.00 | 0.00 | 0.00 | 39 | 1028.4 |
| 20260502030007 | 54 | 258 | 7.8 | 12.2 | 0.00 | 0.00 | 0.00 | 38 | 1028.4 |
| 20260502024507 | 54 | 262 | 7.8 | 13.0 | 0.00 | 0.00 | 0.00 | 38 | 1028.3 |
| 20260502023006 | 55 | 241 | 5.2 | 8.7 | 0.00 | 0.00 | 0.00 | 36 | 1028.2 |
| 20260502021506 | 55 | 236 | 4.3 | 8.7 | 0.00 | 0.00 | 0.00 | 37 | 1028.1 |
| 20260502020006 | 56 | 240 | 4.3 | 7.8 | 0.00 | 0.00 | 0.00 | 37 | 1028.2 |
| 20260502014514 | 56 | 252 | 3.5 | 6.1 | 0.00 | 0.00 | 0.00 | 36 | 1028.2 |
| 20260502013003 | 58 | 264 | 1.7 | 3.5 | 0.00 | 0.00 | 0.00 | 35 | 1028.3 |
| 20260502011503 | 58 | 269 | 0.0 | 3.5 | 0.00 | 0.00 | 0.00 | 34 | 1028.3 |
| 20260502010002 | 59 | 281 | 0.0 | 5.2 | 0.00 | 0.00 | 0.00 | 34 | 1028.4 |
| 20260502004503 | 60 | 302 | 0.0 | 5.2 | 0.00 | 0.00 | 0.00 | 34 | 1028.3 |
| 20260502003140 | 61 | 27 | 0.0 | 4.3 | 0.00 | 0.00 | 0.00 | 33 | 1028.4 |
| 20260502001633 | 61 | 303 | 0.9 | 4.3 | 0.00 | 0.00 | 0.00 | 31 | 1028.5 |
| 20260502000057 | 61 | 18 | 0.0 | 3.5 | 0.00 | 0.00 | 0.00 | 32 | 1028.6 |
| 20260501234556 | 60 | 326 | 0.9 | 7.8 | 0.00 | 0.00 | 0.00 | 33 | 1028.7 |
| 20260501233057 | 61 | 13 | 1.7 | 6.1 | 0.00 | 0.00 | 0.00 | 32 | 1028.8 |
| 20260501231553 | 61 | 309 | 0.0 | 6.1 | 0.00 | 0.00 | 0.00 | 35 | 1028.8 |
| 20260501230051 | 59 | 340 | 3.5 | 7.0 | 0.00 | 0.00 | 0.00 | 33 | 1028.8 |
| 20260501224558 | 59 | 8 | 0.9 | 10.4 | 0.00 | 0.00 | 0.00 | 36 | 1028.9 |
| 20260501223047 | 57 | 60 | 2.6 | 7.0 | 0.00 | 0.00 | 0.00 | 37 | 1029.0 |
| 20260501221546 | 57 | 44 | 4.3 | 7.0 | 0.00 | 0.00 | 0.00 | 37 | 1029.2 |
| 20260501220049 | 58 | 81 | 4.3 | 8.7 | 0.00 | 0.00 | 0.00 | 36 | 1029.4 |
| 20260501214543 | 58 | 51 | 1.7 | 6.1 | 0.00 | 0.00 | 0.00 | 38 | 1029.5 |
| 20260501213045 | 57 | 70 | 7.0 | 10.4 | 0.00 | 0.00 | 0.00 | 37 | 1029.5 |
| 20260501211539 | 58 | 78 | 7.0 | 13.0 | 0.00 | 0.00 | 0.00 | 37 | 1029.7 |
| 20260501210046 | 58 | 270 | 5.2 | 13.0 | 0.00 | 0.00 | 0.00 | 35 | 1029.8 |
| 20260501204536 | 59 | 18 | 6.1 | 13.0 | 0.00 | 0.00 | 0.00 | 34 | 1029.9 |
| 20260501203038 | 58 | 75 | 7.8 | 13.9 | 0.00 | 0.00 | 0.00 | 37 | 1030.2 |
| 20260501201533 | 56 | 94 | 6.1 | 13.9 | 0.00 | 0.00 | 0.00 | 37 | 1030.2 |
| 20260501200030 | 57 | 54 | 8.7 | 14.8 | 0.00 | 0.00 | 0.00 | 37 | 1030.2 |
| 20260501194531 | 56 | 25 | 7.0 | 15.6 | 0.00 | 0.00 | 0.00 | 37 | 1030.3 |
| 20260501193026 | 56 | 4 | 7.0 | 15.6 | 0.00 | 0.00 | 0.00 | 39 | 1030.3 |
| 20260501191525 | 56 | 90 | 9.6 | 16.5 | 0.00 | 0.00 | 0.00 | 39 | 1030.3 |
| 20260501190023 | 56 | 311 | 2.6 | 9.6 | 0.00 | 0.00 | 0.00 | 39 | 1030.3 |
| 20260501184523 | 56 | 321 | 1.7 | 12.2 | 0.00 | 0.00 | 0.00 | 39 | 1030.5 |
| 20260501183020 | 55 | 48 | 7.0 | 11.3 | 0.00 | 0.00 | 0.00 | 41 | 1030.6 |
| 20260501181522 | 54 | 1 | 2.6 | 10.4 | 0.00 | 0.00 | 0.00 | 42 | 1030.9 |
| 20260501180022 | 54 | 6 | 4.3 | 12.2 | 0.00 | 0.00 | 0.00 | 43 | 1031.0 |
| 20260501174513 | 53 | 33 | 3.5 | 8.7 | 0.00 | 0.00 | 0.00 | 42 | 1031.1 |
| 20260501173018 | 52 | 50 | 1.7 | 9.6 | 0.00 | 0.00 | 0.00 | 41 | 1031.3 |
| 20260501171517 | 52 | 360 | 3.5 | 8.7 | 0.00 | 0.00 | 0.00 | 41 | 1031.4 |
| 20260501170011 | 52 | 4 | 0.9 | 7.0 | 0.00 | 0.00 | 0.00 | 41 | 1031.4 |
| 20260501164505 | 50 | 50 | 2.6 | 10.4 | 0.00 | 0.00 | 0.00 | 43 | 1031.3 |
| 20260501163006 | 49 | 62 | 3.5 | 7.8 | 0.00 | 0.00 | 0.00 | 46 | 1031.4 |
| 20260501161504 | 48 | 79 | 1.7 | 9.6 | 0.00 | 0.00 | 0.00 | 46 | 1031.5 |
| 20260501160003 | 48 | 5 | 0.9 | 7.0 | 0.00 | 0.00 | 0.00 | 48 | 1031.6 |
| 20260501154605 | 46 | 58 | 2.6 | 7.8 | 0.00 | 0.00 | 0.00 | 49 | 1031.6 |
| 20260501153106 | 46 | 64 | 0.9 | 6.1 | 0.00 | 0.00 | 0.00 | 52 | 1031.6 |
| 20260501151558 | 45 | 103 | 0.0 | 5.2 | 0.00 | 0.00 | 0.00 | 56 | 1031.6 |
| 20260501150051 | 43 | 360 | 0.0 | 4.3 | 0.00 | 0.00 | 0.00 | 62 | 1031.6 |
| 20260501144556 | 42 | 86 | 3.5 | 7.0 | 0.00 | 0.00 | 0.00 | 63 | 1031.7 |
| 20260501143046 | 41 | 106 | 2.6 | 7.0 | 0.00 | 0.00 | 0.00 | 66 | 1031.8 |